Regional Weather Roundup
Issued by NWS

Home | Current Version | Previous Version | Graphics & Text | Print | Product List | Glossary Off
Versions: 1 2 3 4 5 6 7 8 9 10 11 12 13 14 15 16 17 18 19 20 21 22 23 24 25 26 27 28 29 30 31 32 33 34 35 36 37 38 39 40 41 42 43 44 45 46 47 48 49 50

000
ASUS43 KTOP 211708
RWRKS

WEATHER ROUNDUP FOR KANSAS
NATIONAL WEATHER SERVICE GOODLAND KS
1100 AM CST TUE NOV 21 2017

NOTE:  "FAIR" INDICATES FEW OR NO CLOUDS BELOW 12,000 FEET WITH NO
SIGNIFICANT WEATHER AND/OR OBSTRUCTIONS TO VISIBILITY.

KSZ001>006-013>018-027>032-041>047-211800-
NORTHWEST KANSAS

CITY           SKY/WX    TMP DP  RH WIND       PRES   REMARKS
GOODLAND       SUNNY     42  26  53 N20G28    30.26R
HAYS           SUNNY     47  25  42 NE25G32   30.22R
HILL CITY      SUNNY     45  26  47 N20G30    30.26R
RUSSELL        SUNNY     47  29  49 N22G30    30.21R
$$

KSZ061>065-074>080-084>089-211800-
SOUTHWEST KANSAS

CITY           SKY/WX    TMP DP  RH WIND       PRES   REMARKS
DODGE CITY     SUNNY     49  25  39 N30G38    30.19R
ELKHART        MOSUNNY   60  34  37 N26G39    30.17R
GARDEN CITY    SUNNY     47  24  40 NE29G41   30.20R
GREAT BEND     SUNNY     48  27  44 N25       30.19R
LIBERAL        MOSUNNY   56  29  35 N32G38    30.14R
PRATT          SUNNY     49  26  39 N26G35    30.14R
$$

KSZ066>073-081>083-090>101-211800-
SOUTHEAST KANSAS

CITY           SKY/WX    TMP DP  RH WIND       PRES   REMARKS
CHANUTE        CLOUDY    54  31  41 NE12      30.02R
COFFEYVILLE    CLOUDY    51  37  58 NW7       30.02R
HUTCHINSON     SUNNY     51  28  41 N26G36    30.12R
MEDICINE LODGE   N/A     54  28  36 N30G40    30.09R
NEWTON         PTSUNNY   50  29  44 N31G37    30.10R
PARSONS        CLOUDY    52  36  54 N6        30.03R
WICHITA INTL   MOSUNNY   52  26  36 N22G35    30.08R
WICHITA JABRA  PTSUNNY   52  27  38 N28G33    30.09R
WICHITA MCCONL CLOUDY    53  26  35 N29G36    30.08R
WINFIELD       CLOUDY    55  32  41 NE15      30.03R
$$

KSZ007>012-019>026-033>040-048>060-102>105-211800-
NORTHEAST KANSAS

CITY           SKY/WX    TMP DP  RH WIND       PRES   REMARKS
CONCORDIA      SUNNY     44  26  49 N23G35    30.20R
EMPORIA        SUNNY     52  28  39 N24G31    30.08R
LAWRENCE       MOSUNNY   51  29  42 N17G31    30.09R
MANHATTAN      SUNNY     49  26  41 N17G31    30.16R
MARYSVILLE     SUNNY     43  27  52 N24G36    30.17R
OLATHE IND     CLOUDY    51  31  46 N24G31    30.06R
OLATHE EXE     CLOUDY    50  30  46 N18       30.05R
SALINA         SUNNY     51  29  42 N25       30.18R
TOPEKA BILLARD SUNNY     50  29  44 N22G33    30.11R
TOPEKA FORBES  SUNNY     52  28  39 N23G31    30.09R
$$




USA.gov is the U.S. government's official web portal to all federal, state and local government web resources and services.